KJ6EI Booth Bay CA current weather conditions

sailwx.info

Wind from 038

Air temperature 6.7° C
Dewpoint 6.4° C

Last reported at 2019-Dec-07 07:45 UTC.
Time now 2019-Dec-07 08:55 UTC

Location: N 48°52' W 123°33'.
View on Google Maps.

See reports from other nearby stations

  
Tides and Currents Weather Stations Pressure Air Temp Water Temp Dewpoint Dewpoint Depression Visibility Wind Speed Wind Dir Waves Ship Positions
date/time (UTC)wind fromknots sea level pressurealtimeterstation pressurevisibilityair tempwater tempwave heightnotes
2019-Dec-07 07:45 038 6.7
2019-Dec-07 07:30 068 6.7
2019-Dec-07 07:17 077 6.7
2019-Dec-07 07:01 077 6.7
2019-Dec-07 06:46 077 6.7
2019-Dec-07 06:32 077 6.7
2019-Dec-07 06:17 077 6.7
2019-Dec-07 06:02 077 6.7
2019-Dec-07 05:46 076 6.7
2019-Dec-07 05:32 098 0 gusting 1 6.7
2019-Dec-07 05:16 099 6.7
2019-Dec-07 05:01 099 6.7
2019-Dec-07 04:46 099 6.7
2019-Dec-07 04:31 099 6.7
2019-Dec-07 04:17 099 6.7
2019-Dec-07 04:01 099 6.7
2019-Dec-07 03:46 099 6.7
2019-Dec-07 03:31 099 6.7
2019-Dec-07 03:16 099 6.7
2019-Dec-07 03:01 099 6.7
2019-Dec-07 02:47 099 6.7
2019-Dec-07 02:31 099 6.7
2019-Dec-07 02:16 104 6.7
2019-Dec-07 02:01 111 6.7
2019-Dec-07 01:45 111 6.7
2019-Dec-07 01:31 111 6.7
2019-Dec-07 01:15 111 7.2
2019-Dec-07 01:01 111 7.2
2019-Dec-07 00:46 111 7.2
2019-Dec-07 00:31 111 7.2
2019-Dec-07 00:15 111 7.2
2019-Dec-07 00:00 111 7.2
2019-Dec-06 23:46 111 7.2
2019-Dec-06 23:30 111 7.2
2019-Dec-06 23:15 105 7.8
2019-Dec-06 23:00 105 7.8
2019-Dec-06 22:45 105 7.8
2019-Dec-06 22:30 105 7.8
2019-Dec-06 22:15 105 7.8
2019-Dec-06 22:00 105 7.8
2019-Dec-06 21:45 105 7.8
2019-Dec-06 21:31 101 0 gusting 1 7.8
2019-Dec-06 21:15 101 0 gusting 1 7.8
2019-Dec-06 21:00 116 0 gusting 2 7.8
2019-Dec-06 20:45 115 0 gusting 1 7.8
2019-Dec-06 20:30 124 0 gusting 1 7.8
2019-Dec-06 20:15 117 0 gusting 2 7.8
2019-Dec-06 20:00 097 0 gusting 2 7.8
2019-Dec-06 19:45 124 7.2
2019-Dec-06 19:30 124 7.2
2019-Dec-06 19:15 124 7.2
2019-Dec-06 19:00 125 0 gusting 1 6.7
2019-Dec-06 18:47 304 6.7
2019-Dec-06 18:33 304 6.7
2019-Dec-06 18:17 304 6.1
2019-Dec-06 18:02 305 6.1
2019-Dec-06 17:47 305 6.1
2019-Dec-06 17:31 305 5.6
2019-Dec-06 17:17 305 5.6
2019-Dec-06 17:01 267 5.6
2019-Dec-06 16:46 284 5.6
2019-Dec-06 16:31 284 5.6
2019-Dec-06 16:16 120 5.6
2019-Dec-06 16:01 120 5.6
2019-Dec-06 15:46 120 0 gusting 2 5.6
2019-Dec-06 15:31 106 0 gusting 1 5.6
2019-Dec-06 15:16 003 5.0
2019-Dec-06 15:01 003 5.0
2019-Dec-06 14:46 003 5.0
2019-Dec-06 14:32 003 5.0
2019-Dec-06 14:16 050 5.0
2019-Dec-06 14:01 050 5.0
2019-Dec-06 13:45 050 5.0
2019-Dec-06 13:30 050 5.0
2019-Dec-06 13:16 050 5.0
2019-Dec-06 13:01 050 5.6
2019-Dec-06 12:45 050 5.6
2019-Dec-06 12:31 050 5.6
2019-Dec-06 12:16 050 5.6
2019-Dec-06 12:00 050 5.6
2019-Dec-06 11:45 050 5.6
2019-Dec-06 11:30 050 5.6
2019-Dec-06 11:15 050 5.6
2019-Dec-06 11:00 050 5.6
2019-Dec-06 10:45 009 5.6
2019-Dec-06 10:30 009 5.6
2019-Dec-06 10:15 009 5.6
2019-Dec-06 10:00 009 5.6
2019-Dec-06 09:45 009 5.6
2019-Dec-06 09:30 009 5.6
2019-Dec-06 09:15 009 5.6
2019-Dec-06 09:00 009 5.6
2019-Dec-06 08:45 009 5.6
2019-Dec-06 08:30 009 5.6
2019-Dec-06 08:15 009 5.6
2019-Dec-06 08:00 009 5.6
2019-Dec-06 07:45 009 5.6
2019-Dec-06 07:30 009 5.6
2019-Dec-06 07:15 009 5.6
2019-Dec-06 07:00 009 5.6
2019-Dec-06 06:45 009 5.6
2019-Dec-06 06:30 009 5.6
2019-Dec-06 06:15 009 5.6
2019-Dec-06 06:00 009 5.6
2019-Dec-06 05:45 009 5.6
2019-Dec-06 05:32 009 6.1
2019-Dec-06 05:16 291 6.1
2019-Dec-06 05:03 291 6.1
2019-Dec-06 04:47 291 6.1
2019-Dec-06 04:32 291 6.1
2019-Dec-06 04:16 291 6.1
2019-Dec-06 04:02 291 6.1
2019-Dec-06 03:48 291 6.1
2019-Dec-06 03:31 291 6.1
2019-Dec-06 03:17 291 6.1
2019-Dec-06 03:02 291 6.1
2019-Dec-06 02:46 291 6.1
2019-Dec-06 02:32 291 6.1
2019-Dec-06 02:18 291 6.7
2019-Dec-06 02:02 291 6.7
2019-Dec-06 01:47 291 6.7
2019-Dec-06 01:31 291 6.7
2019-Dec-06 01:17 291 6.7
2019-Dec-06 01:01 291 6.7
2019-Dec-06 00:46 291 6.7
2019-Dec-06 00:31 291 7.2
2019-Dec-06 00:16 291 7.2
2019-Dec-06 00:01 291 7.2
2019-Dec-05 23:46 291 7.2
2019-Dec-05 23:32 291 7.2
2019-Dec-05 23:17 291 7.2
2019-Dec-05 23:02 291 7.2
2019-Dec-05 22:46 291 7.2
2019-Dec-05 22:31 291 7.2
2019-Dec-05 22:16 291 7.2
2019-Dec-05 22:01 291 7.2
2019-Dec-05 21:47 290 7.2
2019-Dec-05 21:31 290 7.2
2019-Dec-05 21:16 290 7.2
2019-Dec-05 21:01 290 7.2
2019-Dec-05 20:46 290 0 gusting 1 7.2
2019-Dec-05 20:31 297 7.2
2019-Dec-05 20:15 297 6.7
2019-Dec-05 20:01 300 6.7
2019-Dec-05 19:46 286 6.7
2019-Dec-05 19:31 305 0 gusting 3 6.7
2019-Dec-05 19:16 288 6.7
2019-Dec-05 19:02 307 6.7
2019-Dec-05 18:46 290 6.7
2019-Dec-05 18:31 295 0 gusting 3 6.7
2019-Dec-05 18:15 298 6.1
2019-Dec-05 18:00 298 6.1
2019-Dec-05 17:45 298 0 gusting 2 5.6
2019-Dec-05 17:30 288 5.6
2019-Dec-05 17:15 288 5.0
2019-Dec-05 17:00 288 5.0
2019-Dec-05 16:45 288 5.0
2019-Dec-05 16:30 288 5.0
2019-Dec-05 16:15 288 5.0
2019-Dec-05 16:00 288 5.0
2019-Dec-05 15:46 288 5.0
2019-Dec-05 15:31 288 5.0
2019-Dec-05 15:16 288 5.0
2019-Dec-05 15:03 288 5.0
2019-Dec-05 14:47 288 5.0
2019-Dec-05 14:32 288 5.6
2019-Dec-05 14:17 288 5.6
2019-Dec-05 14:01 294 5.6
2019-Dec-05 13:47 285 5.6
2019-Dec-05 13:31 284 5.6
2019-Dec-05 13:18 284 5.6
2019-Dec-05 13:01 290 5.6
2019-Dec-05 12:46 301 0 gusting 3 5.6
2019-Dec-05 12:31 294 5.6
2019-Dec-05 12:16 297 0 gusting 2 5.6
2019-Dec-05 12:01 308 0 gusting 3 5.6
2019-Dec-05 11:46 269 1 gusting 6 5.6
2019-Dec-05 11:31 261 0 gusting 3 5.6
2019-Dec-05 11:17 301 0 gusting 3 5.6
2019-Dec-05 11:01 288 0 gusting 5 5.6
2019-Dec-05 10:46 293 5.6
2019-Dec-05 10:31 277 5.6
2019-Dec-05 10:16 261 0 gusting 2 5.6
2019-Dec-05 10:00 302 5.6
2019-Dec-05 09:45 291 5.6
2019-Dec-05 09:31 291 0 gusting 1 5.6
2019-Dec-05 09:15 273 0 gusting 2 5.6
2019-Dec-05 09:00 304 0 gusting 3 5.6
2019-Dec-05 08:45 260 5.6
2019-Dec-05 08:30 232 5.6
2019-Dec-05 08:15 230 5.6
2019-Dec-05 08:00 285 0 gusting 3 5.6